Location: Mohawk View
(42.7837°N, 73.7885°W)
Time: 02:15:10
(UTC+00:00)

Resurs 1-3 - Pass Details

Date: 17 June 2021
Orbit: 629 x 632 km, 97.9° (Epoch: 02 August)

Event Time Altitude Azimuth Distance (km) Brightness Sun altitude
Exits shadow 01:18:01 - 173° (S) 2,866 6.5 -7.0°
Reaches altitude 10° 01:20:07 10° 176° (S) 2,007 5.8 -7.3°
Maximum altitude 01:24:27 66° 258° (WSW) 695 4.0 -7.9°
Drops below altitude 10° 01:28:51 10° 342° (NNW) 2,024 7.3 -8.5°
Sets 01:31:04 0° 345° (NNW) 2,937 8.2 -8.7°
